CQ0XBF-11 Chamusca PT current weather conditions

sailwx.info

Wind from 347 at 4 knots gusting 12

Air temperature 30.6° C
Dewpoint 10.0° C

Last reported at 2017-Aug-16 13:04 UTC.
Time now 2017-Aug-16 13:18 UTC

Location: N 39°21' W 008°28'.
View on Google Maps.

See reports from other nearby stations

  
Tides and Currents Weather Stations Pressure Air Temp Water Temp Dewpoint Dewpoint Depression Visibility Wind Speed Wind Dir Waves Ship Positions
date/time (UTC)wind fromknots sea level pressurealtimeterstation pressurevisibilityair tempwater tempwave heightnotes
2017-Aug-16 13:08 344 3 gusting 8 30.6
2017-Aug-16 13:04 347 4 gusting 12 30.6
2017-Aug-16 12:58 334 5 gusting 11 30.0
2017-Aug-16 12:54 322 4 gusting 11 30.0
2017-Aug-16 12:48 337 5 gusting 13 30.0
2017-Aug-16 12:44 306 8 gusting 13 29.4
2017-Aug-16 12:38 310 6 gusting 10 28.9
2017-Aug-16 12:32 293 6 gusting 9 29.4
2017-Aug-16 12:30 014 5 gusting 15 29.4
2017-Aug-16 12:24 322 6 gusting 7 28.9
2017-Aug-16 12:20 316 4 gusting 9 28.9
2017-Aug-16 12:13 338 5 gusting 13 27.8
2017-Aug-16 12:09 322 8 gusting 13 28.3
2017-Aug-16 12:03 333 6 gusting 11 27.8
2017-Aug-16 11:59 333 6 gusting 13 27.2
2017-Aug-16 11:53 324 6 gusting 12 27.2
2017-Aug-16 11:49 334 4 gusting 13 27.2
2017-Aug-16 11:43 344 8 gusting 13 27.2
2017-Aug-16 11:39 341 3 gusting 15 26.7
2017-Aug-16 11:33 015 6 gusting 16 26.7
2017-Aug-16 11:29 336 6 gusting 15 26.7
2017-Aug-16 11:23 315 6 gusting 12 26.7
2017-Aug-16 11:19 271 7 gusting 13 26.7
2017-Aug-16 11:15 295 8 gusting 14 26.1
2017-Aug-16 11:09 323 4 gusting 13 26.1
2017-Aug-16 11:05 327 6 gusting 11 26.1
2017-Aug-16 10:59 333 7 gusting 11 26.1
2017-Aug-16 10:54 324 7 gusting 13 25.6
2017-Aug-16 10:48 286 6 gusting 13 25.0
2017-Aug-16 10:44 330 6 gusting 13 25.0
2017-Aug-16 10:38 284 7 gusting 12 24.4
2017-Aug-16 10:34 285 8 gusting 12 24.4
2017-Aug-16 10:28 291 6 gusting 8 25.0
2017-Aug-16 10:24 312 4 gusting 10 24.4
2017-Aug-16 10:18 319 4 gusting 9 24.4
2017-Aug-16 10:14 320 8 gusting 9 24.4
2017-Aug-16 10:08 313 4 gusting 8 24.4
2017-Aug-16 10:04 316 5 gusting 7 24.4
2017-Aug-16 09:58 309 4 gusting 7 23.9
2017-Aug-16 09:54 310 4 gusting 10 23.3
2017-Aug-16 09:50 282 4 gusting 8 23.3
2017-Aug-16 09:44 351 4 gusting 7 23.3
2017-Aug-16 09:39 008 1 gusting 9 22.8
2017-Aug-16 09:33 310 4 gusting 8 22.8
2017-Aug-16 09:29 340 4 gusting 9 22.2
2017-Aug-16 09:23 329 5 gusting 10 22.2
2017-Aug-16 09:19 345 4 gusting 10 22.2
2017-Aug-16 09:13 347 5 gusting 10 21.7
2017-Aug-16 09:09 305 4 gusting 11 21.7
2017-Aug-16 09:03 331 4 gusting 9 21.1
2017-Aug-16 08:59 320 5 gusting 9 21.7
2017-Aug-16 08:53 344 4 gusting 10 21.1
2017-Aug-16 08:49 358 6 gusting 13 21.1
2017-Aug-16 08:43 324 3 gusting 12 20.6
2017-Aug-16 08:39 312 5 gusting 12 20.6
2017-Aug-16 08:35 341 7 gusting 10 20.6
2017-Aug-16 08:29 004 4 gusting 10 20.6
2017-Aug-16 08:25 331 6 gusting 10 20.6
2017-Aug-16 08:18 324 6 gusting 7 21.1
2017-Aug-16 08:14 284 2 gusting 9 20.6
2017-Aug-16 08:08 045 20.6
2017-Aug-16 08:04 085 20.0
2017-Aug-16 07:58 348 4 gusting 12 19.4
2017-Aug-16 07:54 344 4 gusting 12 19.4
2017-Aug-16 07:48 310 6 gusting 8 20.0
2017-Aug-16 07:44 341 4 gusting 8 20.0
2017-Aug-16 07:38 334 4 gusting 7 22.2
2017-Aug-16 07:34 324 3 gusting 6 22.2
2017-Aug-16 07:28 049 3 gusting 4 22.8
2017-Aug-16 07:24 050 22.2
2017-Aug-16 07:20 075 4 gusting 5 21.7
2017-Aug-16 07:14 331 0 gusting 4 22.2
2017-Aug-16 07:10 334 21.7
2017-Aug-16 07:03 350 0 gusting 2 22.2
2017-Aug-16 06:59 156 22.2
2017-Aug-16 06:53 091 20.0
2017-Aug-16 06:49 310 18.9
2017-Aug-16 06:43 029 1 gusting 5 17.2
2017-Aug-16 06:39 319 1 gusting 4 16.7
2017-Aug-16 06:33 237 0 gusting 3 16.1
2017-Aug-16 06:29 298 1 gusting 2 16.1
2017-Aug-16 06:23 032 0 gusting 3 16.1
2017-Aug-16 06:19 347 0 gusting 1 16.1
2017-Aug-16 06:13 340 0 gusting 2 16.1
2017-Aug-16 06:09 084 16.1
2017-Aug-16 06:05 104 0 gusting 4 16.1
2017-Aug-16 05:59 244 0 gusting 3 16.1
2017-Aug-16 05:55 309 1 gusting 1 16.1
2017-Aug-16 05:49 327 16.1
2017-Aug-16 05:44 302 0 gusting 5 16.1
2017-Aug-16 05:38 326 3 gusting 8 16.1
2017-Aug-16 05:34 009 3 gusting 10 15.6
2017-Aug-16 05:28 018 2 gusting 9 16.1
2017-Aug-16 05:24 050 1 gusting 6 16.1
2017-Aug-16 05:18 001 1 gusting 6 16.1
2017-Aug-16 05:14 303 3 gusting 7 16.1
2017-Aug-16 05:08 296 2 gusting 7 16.1
2017-Aug-16 05:04 292 4 gusting 6 16.1
2017-Aug-16 04:58 303 3 gusting 6 16.1
2017-Aug-16 04:54 309 2 gusting 6 16.1
2017-Aug-16 04:48 296 2 gusting 7 16.1
2017-Aug-16 04:44 16.1
2017-Aug-16 04:40 336 5 gusting 6 16.1
2017-Aug-16 04:34 316 6 gusting 6 16.1
2017-Aug-16 04:29 299 4 gusting 6 16.1
2017-Aug-16 04:23 281 3 gusting 4 16.1
2017-Aug-16 04:19 324 2 gusting 4 16.1
2017-Aug-16 04:13 270 0 gusting 5 16.1
2017-Aug-16 04:09 306 2 gusting 4 16.1
2017-Aug-16 04:03 319 2 gusting 6 16.7
2017-Aug-16 03:59 334 1 gusting 5 16.1
2017-Aug-16 03:53 310 3 gusting 6 16.7
2017-Aug-16 03:49 302 2 gusting 6 16.7
2017-Aug-16 03:43 270 2 gusting 5 16.7
2017-Aug-16 03:39 244 0 gusting 6 16.7
2017-Aug-16 03:33 303 4 gusting 6 16.7
2017-Aug-16 03:29 323 4 gusting 5 16.7
2017-Aug-16 03:25 303 2 gusting 6 16.7
2017-Aug-16 03:19 338 4 gusting 5 16.7
2017-Aug-16 03:15 344 2 gusting 6 16.7
2017-Aug-16 03:08 326 2 gusting 6 16.7
2017-Aug-16 03:04 322 2 gusting 5 16.7
2017-Aug-16 02:58 326 4 gusting 5 16.7
2017-Aug-16 02:54 323 3 gusting 6 16.7
2017-Aug-16 02:48 326 3 gusting 6 16.7
2017-Aug-16 02:44 303 3 gusting 5 16.7
2017-Aug-16 02:38 025 1 gusting 5 16.7
2017-Aug-16 02:34 345 1 gusting 6 16.7
2017-Aug-16 02:28 327 4 gusting 6 16.7
2017-Aug-16 02:24 317 4 gusting 5 16.7
2017-Aug-16 02:18 355 3 gusting 5 16.7
2017-Aug-16 02:14 343 4 gusting 6 16.7
2017-Aug-16 02:10 313 5 gusting 6 16.7
2017-Aug-16 02:04 322 3 gusting 5 16.7
2017-Aug-16 02:00 310 1 gusting 4 16.7
2017-Aug-16 01:53 309 4 gusting 5 16.7
2017-Aug-16 01:49 313 2 gusting 6 17.2
2017-Aug-16 01:43 319 0 gusting 5 17.2
2017-Aug-16 01:39 202 1 gusting 6 17.2
2017-Aug-16 01:33 293 1 gusting 4 17.2
2017-Aug-16 01:29 331 1 gusting 4 17.2
2017-Aug-16 01:23 316 4 gusting 4 17.2
2017-Aug-16 01:19 312 1 gusting 3 17.2
2017-Aug-16 01:13 289 2 gusting 4 17.2
2017-Aug-16 01:09 279 0 gusting 6 17.2
2017-Aug-16 01:03 329 1 gusting 6 17.2
2017-Aug-16 00:59 330 5 gusting 5 17.2
2017-Aug-16 00:53 322 4 gusting 7 17.2
2017-Aug-16 00:49 326 0 gusting 7 17.2
2017-Aug-16 00:45 322 4 gusting 12 17.2
2017-Aug-16 00:39 17.2
2017-Aug-16 00:34 036 2 gusting 6 17.8
2017-Aug-16 00:28 011 3 gusting 9 17.2
2017-Aug-16 00:24 002 2 gusting 8 17.2
2017-Aug-16 00:18 001 5 gusting 12 17.2
2017-Aug-16 00:14 315 3 gusting 6 17.2
2017-Aug-16 00:08 315 5 gusting 6 17.2
2017-Aug-16 00:04 310 2 gusting 6 17.8
2017-Aug-15 23:58 305 4 gusting 6 17.8
2017-Aug-15 23:54 324 4 gusting 9 17.8
2017-Aug-15 23:48 333 0 gusting 6 18.3
2017-Aug-15 23:44 340 2 gusting 6 18.3
2017-Aug-15 23:38 275 1 gusting 6 18.3
2017-Aug-15 23:34 326 4 gusting 6 18.3
2017-Aug-15 23:30 322 2 gusting 5 18.3
2017-Aug-15 23:24 060 1 gusting 6 18.3
2017-Aug-15 23:20 047 3 gusting 7 18.3
2017-Aug-15 23:13 320 3 gusting 8 18.3
2017-Aug-15 23:09 324 6 gusting 13 18.3
2017-Aug-15 23:03 015 4 gusting 9 17.8
2017-Aug-15 22:59 039 4 gusting 12 17.8
2017-Aug-15 22:53 352 6 gusting 12 18.3
2017-Aug-15 22:49 331 5 gusting 14 17.8
2017-Aug-15 22:43 337 6 gusting 11 18.3
2017-Aug-15 22:39 352 6 gusting 11 18.3
2017-Aug-15 22:33 303 5 gusting 13 18.3
2017-Aug-15 22:29 298 6 gusting 16 18.3
2017-Aug-15 22:23 326 5 gusting 16 18.3
2017-Aug-15 22:19 330 4 gusting 12 18.3
2017-Aug-15 22:15 337 6 gusting 13 18.3
2017-Aug-15 22:09 312 5 gusting 12 18.3
2017-Aug-15 22:05 011 6 gusting 13 18.9
2017-Aug-15 21:58 326 7 gusting 13 18.9
2017-Aug-15 21:54 313 7 gusting 12 18.9
2017-Aug-15 21:48 002 6 gusting 11 18.9
2017-Aug-15 21:44 343 5 gusting 8 19.4
2017-Aug-15 21:38 330 5 gusting 6 20.0
2017-Aug-15 21:34 351 5 gusting 6 20.0
2017-Aug-15 21:28 288 1 gusting 6 20.0
2017-Aug-15 21:24 317 4 gusting 9 20.0
2017-Aug-15 21:18 322 3 gusting 6 20.0
2017-Aug-15 21:14 358 4 gusting 9 20.6
2017-Aug-15 21:08 278 0 gusting 8 20.6
2017-Aug-15 21:04 331 2 gusting 9 20.6
2017-Aug-15 21:00 336 4 gusting 6 20.6
2017-Aug-15 20:54 285 2 gusting 6 20.6
2017-Aug-15 20:50 358 3 gusting 7 21.1
2017-Aug-15 20:44 21.1
2017-Aug-15 20:39 298 6 gusting 7 21.1
2017-Aug-15 20:33 310 7 gusting 8 21.1
2017-Aug-15 20:29 005 6 gusting 9 21.1
2017-Aug-15 20:23 012 5 gusting 11 21.1
2017-Aug-15 20:19 001 6 gusting 8 21.1
2017-Aug-15 20:13 358 4 gusting 10 21.7
2017-Aug-15 20:09 310 6 gusting 14 21.7
2017-Aug-15 20:03 323 6 gusting 14 21.7
2017-Aug-15 19:59 336 7 gusting 14 21.7
2017-Aug-15 19:53 329 6 gusting 10 22.2
2017-Aug-15 19:49 316 6 gusting 11 22.2
2017-Aug-15 19:43 333 6 gusting 12 22.2
2017-Aug-15 19:39 310 4 gusting 13 22.8
2017-Aug-15 19:33 338 5 gusting 11 22.8
2017-Aug-15 19:29 322 8 gusting 13 22.8
2017-Aug-15 19:24 324 10 gusting 14 23.3
2017-Aug-15 19:18 313 6 gusting 16 23.3
2017-Aug-15 19:14 358 9 gusting 13 23.3
2017-Aug-15 19:08 357 5 gusting 14 23.9
2017-Aug-15 19:04 310 6 gusting 9 24.4
2017-Aug-15 18:58 327 5 gusting 11 25.0
2017-Aug-15 18:54 011 2 gusting 10 25.0
2017-Aug-15 18:48 026 5 gusting 10 25.0
2017-Aug-15 18:44 265 7 gusting 12 25.0
2017-Aug-15 18:38 331 4 gusting 12 25.6
2017-Aug-15 18:34 296 6 gusting 13 25.6
2017-Aug-15 18:28 350 6 gusting 13 26.1
2017-Aug-15 18:24 291 6 gusting 13 26.1
2017-Aug-15 18:20 336 6 gusting 13 26.1
2017-Aug-15 18:14 324 6 gusting 12 26.1
2017-Aug-15 18:10 282 7 gusting 13 26.7
2017-Aug-15 18:03 001 6 gusting 12 26.7
2017-Aug-15 17:59 309 6 gusting 10 27.2
2017-Aug-15 17:53 317 5 gusting 11 27.8
2017-Aug-15 17:49 326 6 gusting 12 27.8
2017-Aug-15 17:43 337 6 gusting 8 27.8
2017-Aug-15 17:39 316 5 gusting 8 27.8
2017-Aug-15 17:33 331 4 gusting 14 27.8
2017-Aug-15 17:29 307 9 gusting 12 27.8
2017-Aug-15 17:23 310 6 gusting 13 27.8
2017-Aug-15 17:19 330 6 gusting 12 28.3
2017-Aug-15 17:13 317 7 gusting 12 28.3
2017-Aug-15 17:09 358 7 gusting 10 28.3
2017-Aug-15 17:05 343 6 gusting 13 28.9
2017-Aug-15 16:59 303 6 gusting 13 28.9
2017-Aug-15 16:55 302 5 gusting 13 28.3
2017-Aug-15 16:48 305 6 gusting 13 28.9
2017-Aug-15 16:44 302 6 gusting 13 28.9
2017-Aug-15 16:38 330 6 gusting 14 29.4
2017-Aug-15 16:34 299 7 gusting 15 30.0
2017-Aug-15 16:28 310 7 gusting 14 30.0
2017-Aug-15 16:24 331 7 gusting 12 30.6
2017-Aug-15 16:18 306 6 gusting 12 30.0
2017-Aug-15 16:14 288 6 gusting 13 30.0
2017-Aug-15 16:08 330 6 gusting 13 30.6
2017-Aug-15 16:04 278 7 gusting 14 30.6
2017-Aug-15 15:58 300 7 gusting 13 31.1
2017-Aug-15 15:54 336 6 gusting 13 31.1
2017-Aug-15 15:50 343 5 gusting 10 30.6
2017-Aug-15 15:44 291 4 gusting 12 31.7
2017-Aug-15 15:40 334 6 gusting 11 32.2
2017-Aug-15 15:34 345 3 gusting 10 31.7
2017-Aug-15 15:29 357 4 gusting 10 31.7
2017-Aug-15 15:23 316 6 gusting 9 31.7
2017-Aug-15 15:19 329 5 gusting 12 31.7
2017-Aug-15 15:13 347 7 gusting 12 31.1
2017-Aug-15 15:09 315 6 gusting 11 31.7
2017-Aug-15 15:03 288 5 gusting 13 31.7
2017-Aug-15 14:59 330 6 gusting 10 32.2
2017-Aug-15 14:53 303 7 gusting 9 32.2
2017-Aug-15 14:49 284 3 gusting 11 32.2
2017-Aug-15 14:43 312 4 gusting 9 32.2
2017-Aug-15 14:39 002 4 gusting 10 32.8
2017-Aug-15 14:33 177 32.8
2017-Aug-15 14:29 315 6 gusting 9 32.2
2017-Aug-15 14:25 005 5 gusting 11 32.2
2017-Aug-15 14:19 329 5 gusting 8 32.2
2017-Aug-15 14:15 327 6 gusting 12 32.8
2017-Aug-15 14:08 358 5 gusting 9 32.2
2017-Aug-15 14:04 351 0 gusting 9 32.2
2017-Aug-15 13:58 354 31.7
2017-Aug-15 13:54 327 3 gusting 10 31.1
2017-Aug-15 13:46 299 5 gusting 8 31.7
2017-Aug-15 13:44 319 6 gusting 9 31.7
2017-Aug-15 13:38 337 6 gusting 8 32.2
2017-Aug-15 13:34 327 2 gusting 6 32.2
2017-Aug-15 13:28 320 2 gusting 10 31.7
2017-Aug-15 13:24 316 4 gusting 8 31.1
2017-Aug-15 13:18 340 0 gusting 9 30.6
2017-Aug-15 13:14 330 6 gusting 12 30.6
2017-Aug-15 13:10 327 11 gusting 8 31.1
2017-Aug-15 13:04 348 4 gusting 8 30.6
2017-Aug-15 13:00 343 1 gusting 8 30.0
2017-Aug-15 12:53 357 0 gusting 9 30.0
2017-Aug-15 12:49 333 29.4
2017-Aug-15 12:43 312 6 gusting 7 29.4
2017-Aug-15 12:39 299 6 gusting 8 29.4
2017-Aug-15 12:33 309 3 gusting 10 28.9
2017-Aug-15 12:29 326 2 gusting 8 28.9
2017-Aug-15 12:23 323 3 gusting 11 28.3
2017-Aug-15 12:19 309 5 gusting 9 28.3
2017-Aug-15 12:13 337 6 gusting 10 27.8
2017-Aug-15 12:09 340 6 gusting 10 27.8
2017-Aug-15 12:03 338 4 gusting 10 27.2
2017-Aug-15 11:59 333 0 gusting 9 27.8
2017-Aug-15 11:55 333 3 gusting 11 27.2
2017-Aug-15 11:49 340 3 gusting 8 26.7
2017-Aug-15 11:45 033 5 gusting 11 26.7
2017-Aug-15 11:38 300 6 gusting 8 26.1
2017-Aug-15 11:34 338 4 gusting 12 26.1
2017-Aug-15 11:28 319 3 gusting 10 26.1
2017-Aug-15 11:24 002 5 gusting 10 26.1
2017-Aug-15 11:18 042 4 gusting 12 25.6
2017-Aug-15 11:14 270 5 gusting 12 25.6
2017-Aug-15 11:08 326 6 gusting 7 25.0
2017-Aug-15 11:04 295 0 gusting 8 25.6
2017-Aug-15 10:58 326 7 gusting 9 25.6
2017-Aug-15 10:54 320 6 gusting 7 25.0
2017-Aug-15 10:48 338 1 gusting 12 24.4
2017-Aug-15 10:44 341 6 gusting 6 25.0
2017-Aug-15 10:40 302 4 gusting 7 24.4
2017-Aug-15 10:32 322 5 gusting 6 24.4
2017-Aug-15 10:30 303 5 gusting 10 24.4
2017-Aug-15 10:23 350 3 gusting 8 23.3
2017-Aug-15 10:19 329 3 gusting 10 23.3
2017-Aug-15 10:11 009 3 gusting 14 23.3
2017-Aug-15 10:09 354 4 gusting 10 23.3
2017-Aug-15 10:03 054 1 gusting 9 23.3
2017-Aug-15 09:59 050 0 gusting 10 22.8
2017-Aug-15 09:53 310 5 gusting 8 22.2
2017-Aug-15 09:49 012 1 gusting 9 22.2
2017-Aug-15 09:43 330 4 gusting 8 22.2
2017-Aug-15 09:39 029 4 gusting 10 21.7
2017-Aug-15 09:33 352 3 gusting 9 20.6
2017-Aug-15 09:29 327 8 gusting 13 20.6
2017-Aug-15 09:23 005 3 gusting 9 21.1
2017-Aug-15 09:19 358 2 gusting 12 21.1
2017-Aug-15 09:15 341 5 gusting 10 21.1
2017-Aug-15 09:09 319 7 gusting 7 21.1
2017-Aug-15 09:04 307 0 gusting 8 20.6
2017-Aug-15 08:58 336 3 gusting 11 20.0
2017-Aug-15 08:54 337 8 gusting 11 20.0
2017-Aug-15 08:48 329 5 gusting 12 20.0
2017-Aug-15 08:44 320 3 gusting 13 20.0
2017-Aug-15 08:38 312 6 gusting 12 19.4
2017-Aug-15 08:34 341 6 gusting 11 19.4
2017-Aug-15 08:28 344 10 gusting 12 18.9
2017-Aug-15 08:24 001 6 gusting 12 18.9
2017-Aug-15 08:18 322 5 gusting 14 18.9
2017-Aug-15 08:14 348 6 gusting 13 19.4
2017-Aug-15 08:08 305 7 gusting 13 18.9
2017-Aug-15 08:04 004 6 gusting 11 18.9
2017-Aug-15 08:00 293 11 gusting 11 18.9
2017-Aug-15 07:54 070 1 gusting 11 18.3
2017-Aug-15 07:50 322 6 gusting 12 18.3
2017-Aug-15 07:43 338 5 gusting 13 18.3
2017-Aug-15 07:39 358 3 gusting 9 18.3
2017-Aug-15 07:33 303 4 gusting 6 18.9
2017-Aug-15 07:29 350 1 gusting 8 18.9
2017-Aug-15 07:23 011 2 gusting 8 18.9
2017-Aug-15 07:19 358 2 gusting 12 18.9
2017-Aug-15 07:13 310 6 gusting 8 18.3
2017-Aug-15 07:09 094 2 gusting 7 18.9
2017-Aug-15 07:03 345 4 gusting 6 18.9
2017-Aug-15 06:59 323 2 gusting 6 18.9
2017-Aug-15 06:53 312 3 gusting 7 18.9
2017-Aug-15 06:49 243 18.3
2017-Aug-15 06:45 292 3 gusting 10 17.8
2017-Aug-15 06:37 285 17.2
2017-Aug-15 06:35 326 3 gusting 6 17.2
2017-Aug-15 06:28 284 1 gusting 6 17.2
2017-Aug-15 06:24 018 2 gusting 7 16.7
2017-Aug-15 06:18 284 16.7
2017-Aug-15 06:14 292 5 gusting 8 16.7
2017-Aug-15 06:08 023 3 gusting 6 16.7
2017-Aug-15 06:04 025 3 gusting 5 16.7
2017-Aug-15 05:58 292 1 gusting 6 16.7
2017-Aug-15 05:52 080 2 gusting 6 16.7
2017-Aug-15 05:48 272 2 gusting 7 16.7
2017-Aug-15 05:44 310 2 gusting 9 16.7
2017-Aug-15 05:38 358 1 gusting 8 16.7
2017-Aug-15 05:34 352 4 gusting 8 16.7
2017-Aug-15 05:30 032 2 gusting 12 16.7
2017-Aug-15 05:24 296 4 gusting 12 16.7
2017-Aug-15 05:20 050 4 gusting 7 16.7
2017-Aug-15 05:14 331 5 gusting 8 16.7
2017-Aug-15 05:09 149 3 gusting 8 16.7
2017-Aug-15 05:03 309 2 gusting 7 16.7
2017-Aug-15 04:59 054 0 gusting 8 16.7
2017-Aug-15 04:53 312 0 gusting 6 16.7
2017-Aug-15 04:49 026 1 gusting 6 16.7
2017-Aug-15 04:43 307 1 gusting 6 16.7
2017-Aug-15 04:39 315 3 gusting 7 16.7
2017-Aug-15 04:33 053 4 gusting 7 16.7
2017-Aug-15 04:29 303 1 gusting 6 16.7
2017-Aug-15 04:23 106 0 gusting 6 16.7
2017-Aug-15 04:19 310 1 gusting 7 16.7
2017-Aug-15 04:13 343 2 gusting 8 16.7
2017-Aug-15 04:09 305 6 gusting 9 16.7
2017-Aug-15 04:05 348 5 gusting 9 16.7
2017-Aug-15 03:59 334 6 gusting 9 16.7
2017-Aug-15 03:55 298 2 gusting 7 16.7
2017-Aug-15 03:48 022 5 gusting 10 16.7
2017-Aug-15 03:44 191 3 gusting 6 17.2
2017-Aug-15 03:38 350 3 gusting 7 17.2
2017-Aug-15 03:34 313 1 gusting 7 17.2
2017-Aug-15 03:28 358 2 gusting 7 17.2
2017-Aug-15 03:24 323 3 gusting 8 17.2
2017-Aug-15 03:18 330 3 gusting 7 17.2
2017-Aug-15 03:14 322 5 gusting 7 17.2
2017-Aug-15 03:08 317 6 gusting 8 17.2
2017-Aug-15 03:04 327 2 gusting 7 17.2
2017-Aug-15 02:58 333 4 gusting 8 17.2
2017-Aug-15 02:54 348 4 gusting 9 17.2
2017-Aug-15 02:50 324 6 gusting 7 17.2
2017-Aug-15 02:42 327 5 gusting 8 17.2
2017-Aug-15 02:40 018 2 gusting 11 17.2
2017-Aug-15 02:33 296 6 gusting 8 17.2
2017-Aug-15 02:29 334 7 gusting 6 17.2
2017-Aug-15 02:23 047 2 gusting 6 17.2
2017-Aug-15 02:19 316 2 gusting 5 17.8
2017-Aug-15 02:13 323 3 gusting 5 17.8
2017-Aug-15 02:09 299 4 gusting 9 17.8
2017-Aug-15 02:03 344 4 gusting 6 17.8
2017-Aug-15 01:59 330 1 gusting 7 17.8
2017-Aug-15 01:53 310 4 gusting 6 17.8
2017-Aug-15 01:49 281 1 gusting 7 17.8
2017-Aug-15 01:43 306 4 gusting 7 17.8
2017-Aug-15 01:39 326 3 gusting 6 17.8
2017-Aug-15 01:35 309 3 gusting 6 17.8
2017-Aug-15 01:29 316 4 gusting 7 17.8
2017-Aug-15 01:25 344 2 gusting 7 17.8
2017-Aug-15 01:18 005 2 gusting 4 17.8
2017-Aug-15 01:14 319 3 gusting 6 17.8
2017-Aug-15 01:08 326 3 gusting 5 17.8
2017-Aug-15 01:04 322 1 gusting 2 17.8
2017-Aug-15 00:58 324 18.3
2017-Aug-15 00:54 322 17.8
2017-Aug-15 00:48 315 3 gusting 6 17.8
2017-Aug-15 00:44 351 3 gusting 4 17.8
2017-Aug-15 00:38 337 0 gusting 6 17.8
2017-Aug-15 00:34 319 2 gusting 6 17.8
2017-Aug-15 00:28 067 1 gusting 7 17.8
2017-Aug-15 00:24 329 5 gusting 6 18.3
2017-Aug-15 00:18 007 2 gusting 3 18.3
2017-Aug-15 00:14 345 2 gusting 4 18.3
2017-Aug-15 00:10 323 4 gusting 5 18.3
2017-Aug-15 00:04 327 0 gusting 4 18.3
2017-Aug-14 23:59 320 0 gusting 3 18.3
2017-Aug-14 23:53 331 0 gusting 3 18.3
2017-Aug-14 23:49 298 0 gusting 3 18.9
2017-Aug-14 23:43 016 18.9
2017-Aug-14 23:39 329 0 gusting 5 18.3
2017-Aug-14 23:33 358 18.9
2017-Aug-14 23:29 320 3 gusting 4 18.9
2017-Aug-14 23:23 298 2 gusting 4 18.9
2017-Aug-14 23:19 300 1 gusting 4 18.9
2017-Aug-14 23:13 343 0 gusting 4 18.9
2017-Aug-14 23:09 327 1 gusting 3 18.9
2017-Aug-14 23:03 306 0 gusting 3 18.9
2017-Aug-14 22:59 295 2 gusting 4 19.4
2017-Aug-14 22:55 336 0 gusting 3 19.4
2017-Aug-14 22:49 303 0 gusting 5 19.4
2017-Aug-14 22:45 303 0 gusting 4 19.4
2017-Aug-14 22:38 326 3 gusting 3 19.4
2017-Aug-14 22:34 300 0 gusting 4 20.0
2017-Aug-14 22:28 305 0 gusting 4 20.0
2017-Aug-14 22:24 002 1 gusting 5 20.0
2017-Aug-14 22:18 327 20.0
2017-Aug-14 22:14 275 0 gusting 6 20.0
2017-Aug-14 22:08 240 0 gusting 6 20.6
2017-Aug-14 22:04 196 0 gusting 5 20.6
2017-Aug-14 21:58 317 4 gusting 4 20.6
2017-Aug-14 21:54 230 2 gusting 6 21.1
2017-Aug-14 21:48 210 21.1
2017-Aug-14 21:44 293 0 gusting 5 21.1
2017-Aug-14 21:40 302 2 gusting 5 21.1
2017-Aug-14 21:34 291 1 gusting 4 21.1
2017-Aug-14 21:30 322 3 gusting 11 21.1
2017-Aug-14 21:23 229 1 gusting 11 21.1
2017-Aug-14 21:19 265 1 gusting 5 21.7
2017-Aug-14 21:13 198 1 gusting 6 21.7
2017-Aug-14 21:09 275 2 gusting 5 21.7
2017-Aug-14 21:03 310 2 gusting 4 22.2
2017-Aug-14 20:59 187 22.2
2017-Aug-14 20:53 189 22.2
2017-Aug-14 20:49 315 0 gusting 6 22.2
2017-Aug-14 20:43 334 0 gusting 5 21.7
2017-Aug-14 20:39 188 0 gusting 6 22.2
2017-Aug-14 20:33 352 0 gusting 6 21.7
2017-Aug-14 20:29 320 2 gusting 6 22.2
2017-Aug-14 20:23 351 3 gusting 7 22.2
2017-Aug-14 20:19 323 2 gusting 7 22.2
2017-Aug-14 20:15 258 1 gusting 7 22.2
2017-Aug-14 20:09 326 3 gusting 5 23.3
2017-Aug-14 20:04 322 2 gusting 6 23.3
2017-Aug-14 19:58 305 0 gusting 6 23.3
2017-Aug-14 19:54 305 4 gusting 6 23.3
2017-Aug-14 19:48 288 2 gusting 8 23.3
2017-Aug-14 19:44 344 3 gusting 9 23.3
2017-Aug-14 19:38 232 3 gusting 9 23.9
2017-Aug-14 19:34 306 2 gusting 7 24.4
2017-Aug-14 19:28 250 1 gusting 6 24.4
2017-Aug-14 19:24 222 3 gusting 5 25.0
2017-Aug-14 19:18 312 3 gusting 6 25.6
2017-Aug-14 19:14 286 3 gusting 7 25.6
2017-Aug-14 19:08 310 4 gusting 7 25.6
2017-Aug-14 19:04 081 0 gusting 6 26.1
2017-Aug-14 19:00 329 4 gusting 7 26.1
2017-Aug-14 18:54 309 1 gusting 8 26.7
2017-Aug-14 18:50 336 3 gusting 9 26.7
2017-Aug-14 18:43 313 4 gusting 6 27.2
2017-Aug-14 18:39 009 4 gusting 8 27.2
2017-Aug-14 18:33 333 5 gusting 6 27.8
2017-Aug-14 18:29 309 4 gusting 5 28.3
2017-Aug-14 18:23 329 5 gusting 6 28.9
2017-Aug-14 18:19 292 3 gusting 7 28.9
2017-Aug-14 18:13 284 2 gusting 6 29.4
2017-Aug-14 18:09 278 2 gusting 8 29.4
2017-Aug-14 18:03 305 5 gusting 6 30.0
2017-Aug-14 17:59 317 3 gusting 6 30.0
2017-Aug-14 17:53 322 4 gusting 9 30.0
2017-Aug-14 17:49 284 3 gusting 8 30.0
2017-Aug-14 17:45 019 6 gusting 7 30.6
2017-Aug-14 17:39 344 1 gusting 8 30.6
2017-Aug-14 17:35 303 8 gusting 6 31.1
2017-Aug-14 17:28 264 2 gusting 6 31.7
2017-Aug-14 17:24 032 0 gusting 8 31.7
2017-Aug-14 17:18 022 3 gusting 12 30.6
2017-Aug-14 17:14 30.6
2017-Aug-14 17:08 322 6 gusting 9 30.6
2017-Aug-14 17:04 305 5 gusting 17 30.6
2017-Aug-14 16:58 324 10 gusting 11 31.1
2017-Aug-14 16:54 288 1 gusting 10 31.7
2017-Aug-14 16:48 291 5 gusting 8 32.2
2017-Aug-14 16:44 241 1 gusting 11 32.2
2017-Aug-14 16:38 002 5 gusting 12 32.2
2017-Aug-14 16:34 358 6 gusting 9 32.8
2017-Aug-14 16:30 327 4 gusting 8 33.3
2017-Aug-14 16:24 340 3 gusting 8 33.9
2017-Aug-14 16:20 310 1 gusting 8 33.9
2017-Aug-14 16:14 310 3 gusting 10 34.4
2017-Aug-14 16:09 358 2 gusting 7 33.9
2017-Aug-14 16:03 016 2 gusting 9 34.4
2017-Aug-14 15:59 323 4 gusting 6 35.6
2017-Aug-14 15:53 313 4 gusting 6 36.1
2017-Aug-14 15:49 147 0 gusting 9 35.6
2017-Aug-14 15:43 247 1 gusting 7 35.0
2017-Aug-14 15:39 281 4 gusting 10 35.0
2017-Aug-14 15:33 265 0 gusting 9 35.0
2017-Aug-14 15:29 317 3 gusting 6 35.6
2017-Aug-14 15:23 319 1 gusting 6 36.1
2017-Aug-14 15:19 265 2 gusting 7 35.6
2017-Aug-14 15:13 306 4 gusting 9 35.0
2017-Aug-14 15:09 312 3 gusting 6 36.1
2017-Aug-14 15:05 177 2 gusting 6 36.7
2017-Aug-14 14:54 192 0 gusting 6 36.1
2017-Aug-14 14:44 319 3 gusting 7 35.0
2017-Aug-14 14:38 334 3 gusting 7 35.6
2017-Aug-14 14:34 296 2 gusting 7 36.1
2017-Aug-14 14:28 298 4 gusting 8 36.1
2017-Aug-14 14:24 326 5 gusting 7 36.1
2017-Aug-14 14:18 254 0 gusting 6 36.7
2017-Aug-14 14:14 291 1 gusting 7 35.6
2017-Aug-14 14:08 271 4 gusting 6 36.7
2017-Aug-14 14:04 234 0 gusting 5 36.1
2017-Aug-14 13:58 330 0 gusting 4 36.7
2017-Aug-14 13:54 271 36.1
2017-Aug-14 13:50 246 3 gusting 5 36.1
2017-Aug-14 13:44 230 1 gusting 6 35.6
2017-Aug-14 13:40 300 3 gusting 6 35.0
2017-Aug-14 13:33 278 1 gusting 7 35.0
2017-Aug-14 13:29 026 34.4
2017-Aug-14 13:23 300 1 gusting 6 33.9
2017-Aug-14 13:19 288 6 gusting 8 34.4
2017-Aug-14 13:13 291 3 gusting 7 34.4
2017-Aug-14 13:09 243 34.4
2017-Aug-14 13:03 254 34.4